When you browse on this site, cookies collect data to enhance your experience and personalize the content and advertising you see.
Visit our Privacy Policy to learn more. By continuing to use the site, you agree to this use of cookies and data.
  • In United Kingdom
  • List of Countries
  • For 7 days
  • Water Temperature
  • Weather Map
  • Weather Widgets
  • user-avatar
    Login

    Hourly Weather Liege

    Today, 20 October, Sunday

    Time Temperature Precipitation Wind Pressure Humidity
    00:00 +10°C° 0 mm 2 mps 746 mmHg 95%
    01:00 +10°C° 0.1 mm 2 mps 746 mmHg 95%
    02:00 +11°C° 0.1 mm 1 mps 746 mmHg 95%
    03:00 +11°C° 0.1 mm 1 mps 746 mmHg 94%
    04:00 +11°C° 0.8 mm 1 mps 746 mmHg 95%
    05:00 +11°C° 0.8 mm 1 mps 746 mmHg 95%
    06:00 +11°C° 0 mm 1 mps 746 mmHg 94%
    07:00 +11°C° 0.3 mm 1 mps 746 mmHg 95%
    08:00 +12°C° 0.3 mm 1 mps 746 mmHg 95%
    09:00 +12°C° 0.3 mm 2 mps 746 mmHg 95%
    10:00 +12°C° 2 mm 2 mps 746 mmHg 96%
    11:00 +11°C° 2 mm 3 mps 746 mmHg 96%
    12:00 +11°C° 2 mm 3 mps 746 mmHg 97%
    13:00 +11°C° 1.1 mm 3 mps 746 mmHg 97%
    14:00 +12°C° 1.1 mm 3 mps 746 mmHg 97%
    15:00 +12°C° 1.1 mm 3 mps 746 mmHg 97%
    16:00 +13°C° 0.5 mm 2 mps 746 mmHg 97%
    17:00 +13°C° 0.5 mm 2 mps 747 mmHg 97%
    18:00 +13°C° 0.5 mm 2 mps 747 mmHg 97%
    19:00 +13°C° 1.4 mm 2 mps 747 mmHg 97%
    20:00 +13°C° 1.4 mm 2 mps 747 mmHg 98%
    21:00 +13°C° 1.4 mm 2 mps 747 mmHg 98%
    22:00 +13°C° 1.8 mm 2 mps 747 mmHg 98%
    23:00 +13°C° 1.8 mm 2 mps 747 mmHg 98%

    Tomorrow, 21 October, Monday

    Time Temperature Precipitation Wind Pressure Humidity
    00:00 +14°C° 1.8 mm 2 mps 748 mmHg 98%
    01:00 +14°C° 1.1 mm 2 mps 747 mmHg 98%
    02:00 +14°C° 1.1 mm 2 mps 747 mmHg 98%
    03:00 +14°C° 1.1 mm 2 mps 747 mmHg 98%
    04:00 +13°C° 0 mm 3 mps 748 mmHg 96%
    05:00 +12°C° 0 mm 3 mps 749 mmHg 94%
    06:00 +12°C° 0 mm 4 mps 750 mmHg 93%
    07:00 +12°C° 0 mm 4 mps 750 mmHg 90%
    08:00 +12°C° 0 mm 5 mps 751 mmHg 87%
    09:00 +13°C° 0 mm 6 mps 751 mmHg 84%
    10:00 +13°C° 0 mm 6 mps 752 mmHg 81%
    11:00 +13°C° 0 mm 6 mps 752 mmHg 78%
    12:00 +12°C° 0 mm 7 mps 753 mmHg 76%
    13:00 +13°C° 0 mm 6 mps 753 mmHg 76%
    14:00 +13°C° 0 mm 6 mps 753 mmHg 77%
    15:00 +13°C° 0 mm 5 mps 753 mmHg 77%
    16:00 +12°C° 0 mm 5 mps 754 mmHg 79%
    17:00 +12°C° 0 mm 5 mps 754 mmHg 80%
    18:00 +12°C° 0 mm 5 mps 755 mmHg 82%
    19:00 +12°C° 0 mm 5 mps 755 mmHg 84%
    20:00 +10°C° 0 mm 5 mps 756 mmHg 86%
    21:00 +11°C° 0 mm 4 mps 756 mmHg 88%
    22:00 +10°C° 0 mm 4 mps 756 mmHg 89%
    23:00 +10°C° 0 mm 3 mps 757 mmHg 91%

    Day after tomorrow, 22 October, Tuesday

    Time Temperature Precipitation Wind Pressure Humidity
    00:00 +9°C° 0 mm 3 mps 757 mmHg 93%
    01:00 +9°C° 0 mm 3 mps 757 mmHg 93%
    02:00 +9°C° 0 mm 3 mps 757 mmHg 94%
    03:00 +8°C° 0 mm 3 mps 757 mmHg 95%
    04:00 +8°C° 0 mm 3 mps 758 mmHg 95%
    05:00 +8°C° 0 mm 2 mps 758 mmHg 95%
    06:00 +8°C° 0 mm 2 mps 758 mmHg 95%
    07:00 +9°C° 0 mm 2 mps 758 mmHg 91%
    08:00 +10°C° 0 mm 2 mps 759 mmHg 88%
    09:00 +12°C° 0 mm 2 mps 759 mmHg 84%
    10:00 +13°C° 0 mm 2 mps 759 mmHg 80%
    11:00 +14°C° 0 mm 1 mps 759 mmHg 76%
    12:00 +15°C° 0 mm 1 mps 759 mmHg 72%
    13:00 +15°C° 0 mm 1 mps 759 mmHg 73%
    14:00 +15°C° 0 mm 1 mps 758 mmHg 74%
    15:00 +15°C° 0 mm 1 mps 758 mmHg 74%
    16:00 +13°C° 0 mm 1 mps 758 mmHg 80%
    17:00 +12°C° 0 mm 1 mps 758 mmHg 85%
    18:00 +9°C° 0 mm 2 mps 758 mmHg 91%
    19:00 +9°C° 0 mm 2 mps 758 mmHg 91%
    20:00 +9°C° 0 mm 2 mps 757 mmHg 92%
    21:00 +9°C° 0 mm 2 mps 757 mmHg 93%
    22:00 +8°C° 0 mm 2 mps 757 mmHg 92%
    23:00 +8°C° 0 mm 2 mps 757 mmHg 92%

    23 October, Wednesday

    Time Temperature Precipitation Wind Pressure Humidity
    00:00 +8°C° 0 mm 2 mps 756 mmHg 92%
    01:00 +8°C° 0 mm 2 mps 756 mmHg 92%
    02:00 +8°C° 0 mm 2 mps 755 mmHg 91%
    03:00 +9°C° 0 mm 2 mps 755 mmHg 90%
    04:00 +9°C° 0 mm 2 mps 754 mmHg 90%
    05:00 +9°C° 0 mm 2 mps 754 mmHg 89%
    06:00 +9°C° 0 mm 3 mps 754 mmHg 88%
    07:00 +11°C° 0 mm 3 mps 753 mmHg 84%
    08:00 +13°C° 0 mm 3 mps 753 mmHg 81%
    09:00 +16°C° 0 mm 3 mps 753 mmHg 77%
    10:00 +17°C° 0 mm 3 mps 752 mmHg 75%
    11:00 +19°C° 0 mm 3 mps 752 mmHg 72%
    12:00 +20°C° 0 mm 3 mps 751 mmHg 70%
    13:00 +20°C° 0 mm 3 mps 750 mmHg 72%
    14:00 +20°C° 0 mm 3 mps 750 mmHg 74%
    15:00 +20°C° 0 mm 2 mps 749 mmHg 77%
    16:00 +18°C° 0 mm 3 mps 749 mmHg 80%
    17:00 +17°C° 0 mm 4 mps 749 mmHg 84%
    18:00 +14°C° 0 mm 4 mps 748 mmHg 87%
    19:00 +13°C° 0 mm 3 mps 748 mmHg 89%
    20:00 +13°C° 0 mm 3 mps 748 mmHg 90%
    21:00 +13°C° 0 mm 2 mps 748 mmHg 92%
    22:00 +13°C° 0 mm 2 mps 748 mmHg 92%
    23:00 +12°C° 0 mm 1 mps 748 mmHg 93%

    24 October, Thursday

    Time Temperature Precipitation Wind Pressure Humidity
    00:00 +12°C° 0 mm 1 mps 748 mmHg 94%
    01:00 +12°C° 0 mm 1 mps 748 mmHg 94%
    02:00 +12°C° 0 mm 1 mps 748 mmHg 94%
    03:00 +11°C° 0 mm 1 mps 748 mmHg 94%
    04:00 +12°C° 0 mm 2 mps 748 mmHg 94%
    05:00 +12°C° 0 mm 2 mps 748 mmHg 93%
    06:00 +12°C° 0 mm 2 mps 748 mmHg 93%
    07:00 +14°C° 0 mm 2 mps 748 mmHg 88%
    08:00 +14°C° 0 mm 3 mps 748 mmHg 83%
    09:00 +17°C° 0 mm 3 mps 748 mmHg 78%
    10:00 +18°C° 0 mm 3 mps 748 mmHg 74%
    11:00 +20°C° 0 mm 3 mps 748 mmHg 70%
    12:00 +21°C° 0 mm 4 mps 748 mmHg 66%
    13:00 +20°C° 0 mm 3 mps 748 mmHg 70%
    14:00 +20°C° 0 mm 3 mps 748 mmHg 73%
    15:00 +19°C° 0 mm 3 mps 748 mmHg 76%
    16:00 +18°C° 0 mm 3 mps 749 mmHg 80%
    17:00 +16°C° 0 mm 3 mps 749 mmHg 84%
    18:00 +14°C° 0 mm 2 mps 750 mmHg 88%
    19:00 +14°C° 0 mm 2 mps 750 mmHg 90%
    20:00 +13°C° 0 mm 2 mps 751 mmHg 91%
    21:00 +12°C° 0 mm 2 mps 751 mmHg 93%
    22:00 +12°C° 0 mm 2 mps 751 mmHg 92%
    23:00 +13°C° 0 mm 2 mps 751 mmHg 92%

    25 October, Friday

    Time Temperature Precipitation Wind Pressure Humidity
    00:00 +13°C° 0 mm 2 mps 752 mmHg 91%
    01:00 +13°C° 0 mm 2 mps 752 mmHg 92%
    02:00 +13°C° 0 mm 2 mps 752 mmHg 92%
    03:00 +13°C° 0 mm 2 mps 752 mmHg 93%
    04:00 +12°C° 0 mm 2 mps 753 mmHg 94%
    05:00 +12°C° 0 mm 2 mps 753 mmHg 95%
    06:00 +12°C° 0 mm 2 mps 753 mmHg 95%
    07:00 +13°C° 0 mm 2 mps 753 mmHg 92%
    08:00 +14°C° 0 mm 2 mps 754 mmHg 89%
    09:00 +15°C° 0 mm 2 mps 754 mmHg 85%
    10:00 +16°C° 0 mm 2 mps 754 mmHg 81%
    11:00 +16°C° 0 mm 2 mps 754 mmHg 76%
    12:00 +17°C° 0 mm 2 mps 754 mmHg 72%
    13:00 +17°C° 0 mm 2 mps 753 mmHg 73%
    14:00 +17°C° 0 mm 2 mps 753 mmHg 74%
    15:00 +18°C° 0 mm 1 mps 753 mmHg 76%
    16:00 +16°C° 0 mm 2 mps 753 mmHg 80%
    17:00 +15°C° 0 mm 2 mps 753 mmHg 85%
    18:00 +13°C° 0 mm 3 mps 752 mmHg 89%
    19:00 +12°C° 0 mm 3 mps 752 mmHg 91%
    20:00 +12°C° 0 mm 3 mps 752 mmHg 92%
    21:00 +12°C° 0 mm 3 mps 752 mmHg 93%
    22:00 +11°C° 0 mm 4 mps 752 mmHg 92%
    23:00 +11°C° 0 mm 4 mps 751 mmHg 91%
    Show more